Location: Chircca
(13.7944°S, 72.0608°W)
Time: 01:55:40
(UTC+00:00)

Cosmos 2322 Rocket - Pass Details

Date: 14 July 2020
Orbit: 832 x 851 km, 71.0° (Epoch: 06 August)

Event Time Altitude Azimuth Distance (km) Brightness Sun altitude
Rises 09:49:50 0° 358° (N) 3,394 5.6 -19.8°
Reaches altitude 10° 09:52:22 10° 5° (N) 2,465 4.9 -19.2°
Maximum altitude 09:57:44 45° 76° (ENE) 1,153 3.4 -17.9°
Drops below altitude 10° 10:03:09 10° 147° (SSE) 2,486 4.8 -16.7°
Sets 10:05:42 0° 153° (SSE) 3,425 5.5 -16.1°
